Theta_e
312 312 312 312 313 313 313 313 314 314 315 317 317 321 333 342 335 323 321 323 325 336 347 342 338 340 335 328 325 326 327 325 324 325 325 328 327 326 327 328 328 329 328 330 332 330 331 332 333 334 333 330 328 330 332 330 334 343 342 342 346 338 323 315 318 326 328 329 330 326 324 323 319 321 325 323 324 323 318 324 332 325 320 330 328 320 336
312 311 311 312 312 313 313 313 314 314 315 316 318 327 337 337 335 333 325 321 327 337 339 338 339 340 336 328 325 325 325 324 324 324 324 326 327 327 326 325 327 328 326 330 330 328 330 331 331 334 332 328 329 332 330 329 334 338 339 345 344 332 325 323 322 323 324 330 334 329 328 327 323 327 328 324 327 325 321 327 328 321 322 329 325 322 340
311 311 311 311 312 313 313 313 313 314 315 316 319 325 331 331 332 334 327 321 327 332 330 332 338 340 336 329 324 324 327 324 323 324 324 324 326 327 325 324 325 325 326 328 328 328 332 332 330 331 329 327 328 329 328 329 333 336 339 345 338 327 332 334 325 319 318 322 325 323 326 326 323 327 328 325 327 323 322 323 317 316 325 329 326 327 342
311 310 310 311 312 312 313 313 313 314 315 317 318 319 326 333 332 332 330 323 324 328 328 328 333 338 338 333 325 323 325 324 323 324 323 323 324 325 324 324 325 326 327 329 329 328 331 332 330 328 328 327 325 324 327 328 333 338 338 340 342 340 340 339 334 330 326 326 328 328 330 325 320 322 325 326 327 326 328 324 317 324 331 329 339 341 334
310 310 309 310 311 312 313 313 313 314 315 316 318 319 325 332 330 326 328 326 327 332 330 327 329 333 335 332 324 322 323 322 324 325 324 323 323 325 324 324 327 327 327 330 331 328 331 333 329 327 327 325 323 323 327 330 334 337 333 338 349 345 335 335 340 340 334 333 334 332 330 326 321 320 322 325 327 326 326 321 321 332 327 321 347 354 329
310 309 309 309 311 311 312 313 313 314 315 315 320 324 324 326 325 322 321 323 328 332 330 329 328 328 332 332 324 322 324 323 324 325 324 323 323 326 328 324 325 326 325 331 332 329 333 334 328 327 327 326 325 326 328 329 332 332 330 336 342 336 333 334 334 334 334 333 334 332 329 327 326 324 321 323 327 326 326 327 330 336 325 319 345 357 338
310 310 308 308 310 311 312 313 313 313 315 314 319 324 324 326 328 325 322 323 327 330 329 330 329 326 332 336 326 321 324 325 323 322 324 326 323 325 329 326 325 326 328 335 334 329 332 333 329 328 327 325 326 329 329 330 332 328 327 334 336 332 341 344 332 329 332 333 335 333 330 329 330 329 325 321 326 330 332 337 339 335 332 335 347 353 348
310 309 308 307 309 312 312 314 313 313 314 313 316 319 321 324 325 325 328 332 333 332 330 330 331 328 330 332 325 321 323 323 322 322 324 326 323 323 326 325 325 326 328 333 331 325 325 328 328 328 327 327 329 330 331 330 329 328 327 333 334 329 338 349 339 328 327 332 336 334 331 332 328 326 329 328 330 340 346 354 352 337 336 347 346 344 353
310 309 309 307 308 311 313 314 314 313 313 314 316 316 316 316 316 318 327 334 332 332 331 329 333 332 328 327 324 322 322 321 322 324 322 321 322 321 322 324 326 328 329 328 325 323 322 323 325 324 324 327 328 328 329 328 326 329 330 332 334 331 337 346 340 327 324 329 334 332 331 331 326 328 339 340 339 345 351 356 354 343 341 345 335 333 352
309 309 309 308 307 308 312 314 314 314 313 313 315 316 314 315 317 316 321 325 326 330 331 328 332 331 324 323 322 321 321 320 322 327 325 321 320 320 321 322 324 328 329 326 322 321 320 320 321 321 320 323 323 322 325 324 323 328 332 333 337 336 334 337 335 328 325 327 331 333 329 326 326 332 338 339 342 349 351 350 349 345 342 338 330 334 347
309 309 309 309 308 307 309 313 314 314 314 313 313 313 312 314 318 317 322 321 320 325 332 331 332 329 322 320 320 320 322 321 321 324 326 324 320 320 322 322 323 327 328 323 319 318 319 318 318 319 319 320 322 321 321 322 321 324 328 332 339 340 334 335 336 330 327 332 334 330 326 327 331 334 336 339 344 349 350 346 343 344 343 339 338 341 343
310 309 309 309 308 306 307 311 313 314 314 313 313 313 312 313 315 317 324 323 319 325 333 330 325 323 321 320 320 320 322 321 319 319 322 324 322 320 321 320 321 325 324 319 316 317 320 320 321 322 322 321 322 322 322 325 325 325 326 327 332 337 334 337 340 332 331 340 338 328 327 334 339 336 338 343 343 342 345 345 343 343 343 342 342 342 340
310 309 309 308 308 307 306 308 312 314 314 313 313 313 313 313 315 318 324 326 325 328 329 326 323 321 320 320 320 321 321 320 321 321 321 322 322 320 320 320 320 320 317 316 317 320 324 330 332 331 329 328 330 327 326 328 329 331 332 328 328 334 335 338 340 334 330 334 333 329 332 340 343 341 341 343 343 343 346 347 344 343 342 342 343 341 340
310 309 309 308 308 308 306 306 309 312 314 314 313 313 313 312 314 318 320 323 327 328 324 325 326 324 321 321 321 322 323 322 322 322 320 320 322 320 319 318 318 316 314 317 325 328 328 333 338 336 334 337 337 331 329 331 331 335 337 332 329 333 335 337 336 332 332 333 333 335 336 336 341 343 339 339 340 342 343 344 344 343 342 342 342 341 341
310 309 309 309 308 308 307 306 307 310 313 313 312 313 313 312 313 316 315 318 325 328 324 324 324 322 321 321 320 322 327 326 323 323 323 322 321 320 318 317 316 314 315 322 330 333 330 330 334 336 336 337 333 330 332 334 332 333 334 334 333 333 334 336 332 333 340 339 336 338 334 330 336 339 335 334 337 337 339 344 347 345 340 340 341 340 341
310 310 309 309 308 308 307 305 305 307 310 312 313 312 312 312 312 313 314 318 321 321 321 320 320 319 320 321 320 320 323 324 323 327 331 328 322 320 317 316 315 315 321 329 332 333 333 331 331 332 332 330 329 332 336 337 335 334 331 332 336 336 337 336 330 331 338 335 333 337 333 330 338 339 335 335 335 335 337 343 347 344 339 339 341 339 340
310 310 310 309 309 308 306 305 305 306 307 309 311 312 311 312 311 311 314 317 318 320 322 319 318 319 321 323 324 321 321 322 322 324 327 325 323 322 319 317 317 317 324 333 335 335 337 335 333 335 334 330 331 337 340 338 339 338 333 334 340 344 346 341 332 333 338 335 334 336 334 336 340 338 335 335 334 336 339 340 343 343 339 338 340 339 339
311 311 310 310 309 308 306 305 305 306 306 307 309 311 310 310 311 311 314 316 318 324 324 316 314 318 319 321 323 320 319 322 322 322 324 324 323 321 318 318 321 319 323 331 335 335 335 333 332 335 336 333 332 336 336 336 338 338 336 337 340 342 344 342 339 342 345 340 335 333 333 338 339 336 335 335 335 342 345 341 341 343 339 337 338 339 339
311 310 310 310 309 308 307 306 305 306 306 306 308 309 309 309 309 310 313 315 316 319 318 312 312 316 315 316 321 320 318 320 320 320 325 326 322 318 317 318 320 321 324 331 333 331 331 332 330 330 334 335 334 332 332 334 336 336 336 338 338 338 340 342 341 343 343 339 337 335 333 335 335 335 337 337 339 346 346 340 340 342 339 336 337 338 338
311 310 310 309 310 308 307 306 305 306 305 305 306 307 307 307 307 308 312 313 312 315 315 310 311 315 314 314 318 318 318 321 320 318 323 325 321 320 324 325 323 323 328 331 330 328 329 331 330 328 331 334 333 332 331 333 335 334 334 337 338 337 339 342 341 341 341 340 340 338 334 333 334 337 341 343 343 344 341 338 339 339 336 335 336 336 336
311 311 310 309 309 309 307 306 306 306 305 305 305 306 306 306 307 308 310 310 311 317 319 312 310 313 313 314 314 313 315 318 318 318 321 323 320 320 324 325 323 323 327 329 328 327 327 329 328 328 329 330 330 330 329 331 334 333 332 336 338 335 337 340 340 340 341 342 342 339 335 334 335 336 340 344 343 340 340 340 340 338 336 335 335 335 334
311 311 310 309 309 309 307 307 306 306 306 305 305 305 306 306 308 309 310 309 310 315 317 312 311 312 312 312 314 312 313 314 314 314 317 320 321 319 319 322 324 324 325 328 328 326 326 327 326 326 328 329 329 329 327 329 334 335 332 332 334 334 333 334 336 339 340 339 339 339 338 337 336 335 338 342 342 340 338 338 338 339 338 337 337 337 335
311 311 310 309 309 309 308 308 307 307 306 305 305 305 305 307 309 310 311 309 309 312 312 310 312 314 313 313 314 313 313 313 313 313 313 317 322 323 320 321 323 323 325 329 328 325 327 327 325 324 326 327 328 329 328 329 332 335 333 331 333 334 332 331 334 339 339 336 335 337 337 337 336 335 335 337 340 340 338 338 339 338 337 337 339 339 337
311 311 310 309 309 309 308 308 308 307 306 305 305 305 305 307 309 310 311 310 311 315 316 313 314 317 316 314 313 313 312 312 313 313 313 314 320 326 324 318 318 321 326 328 325 323 326 326 323 323 326 327 327 327 327 329 331 331 331 333 334 332 330 330 334 336 336 337 338 337 334 333 335 338 338 337 339 340 338 339 341 339 337 338 338 337 336
311 312 311 310 309 308 308 309 308 307 306 306 305 305 307 308 308 309 311 311 312 315 320 321 319 315 313 313 312 312 312 312 313 313 313 313 315 320 321 317 315 317 320 320 320 322 324 324 323 324 324 325 325 325 326 328 330 328 327 330 332 328 326 330 337 338 337 338 340 335 332 332 335 337 339 339 340 340 338 338 338 337 335 336 336 335 335
312 312 311 310 309 308 308 309 308 307 306 305 305 307 308 309 310 310 310 311 311 311 317 324 322 314 311 312 312 311 312 312 311 312 313 313 313 315 316 315 315 315 315 317 320 324 325 325 324 324 325 324 325 327 329 329 328 326 326 328 328 325 326 332 337 337 336 337 337 335 334 337 336 333 332 334 338 340 341 339 338 335 333 334 335 335 334
312 312 311 310 309 307 307 308 307 307 306 305 306 309 310 310 311 312 311 311 313 314 318 322 319 313 311 311 311 311 311 312 311 312 312 312 313 314 314 314 315 316 316 318 321 323 324 324 324 325 326 326 325 328 329 327 325 326 328 330 328 327 330 333 332 333 335 338 337 333 332 335 334 330 329 331 332 335 338 339 338 337 337 338 339 339 337
312 312 311 310 308 307 307 307 307 307 306 305 308 311 312 311 311 313 312 311 312 315 316 315 313 312 312 312 311 311 312 313 312 313 313 313 313 313 313 314 315 316 317 319 323 325 326 325 325 325 326 326 326 327 326 325 325 326 329 331 331 332 334 334 331 332 334 335 333 330 330 333 334 331 330 330 329 332 336 337 337 338 338 339 341 342 342
312 311 311 310 308 307 307 307 307 307 306 306 309 311 312 311 310 311 312 311 310 312 312 312 314 315 314 312 312 312 313 314 314 313 314 314 313 313 313 313 314 316 319 323 325 327 327 327 327 326 325 325 326 327 326 327 328 328 328 330 332 333 334 333 330 331 331 331 331 331 331 331 330 328 327 327 328 332 335 334 334 336 335 335 338 340 341
312 311 310 309 307 307 307 307 307 307 306 306 308 312 315 314 311 310 311 310 310 311 311 312 315 316 314 312 312 313 312 313 314 314 314 313 313 313 312 313 314 316 319 323 324 324 327 328 328 327 325 323 324 326 326 327 330 331 330 331 331 331 330 330 329 329 329 329 329 328 327 327 327 326 328 329 329 331 332 331 330 331 331 331 335 338 337
311 311 310 308 307 307 307 307 306 307 307 306 307 314 321 319 313 311 311 311 311 310 311 311 313 313 312 313 313 312 313 313 314 316 316 315 316 315 314 314 316 316 319 324 324 323 326 328 328 328 326 322 324 330 330 328 329 331 329 330 331 330 329 328 327 326 326 326 325 325 327 328 327 328 332 333 329 326 328 329 327 327 328 329 330 332 332
311 310 309 308 307 307 307 307 306 306 307 306 307 311 315 314 311 309 310 310 309 309 310 312 313 313 315 316 313 311 313 314 315 319 321 321 320 318 316 317 318 318 322 325 324 324 327 329 327 328 328 325 326 332 333 329 327 326 324 325 327 327 326 326 325 324 324 324 325 328 331 333 330 329 331 331 328 325 327 328 325 323 325 326 326 327 329
311 310 308 308 308 307 307 307 307 307 308 309 310 311 312 312 312 311 310 309 308 308 309 312 314 315 316 317 315 314 315 318 321 325 327 326 322 320 322 324 322 320 321 324 325 325 327 327 326 327 328 327 328 332 334 331 327 325 324 326 326 326 327 328 327 328 329 328 328 329 331 331 329 327 326 327 325 325 325 325 324 324 326 330 333 334 332
310 309 308 308 308 307 307 307 307 308 310 311 312 313 313 314 314 312 311 310 309 309 310 312 314 315 314 316 320 319 315 318 324 328 330 327 323 322 327 329 326 322 322 324 325 325 325 325 326 327 328 328 327 329 332 332 329 328 328 329 328 329 330 330 330 331 332 330 329 328 328 328 327 326 326 327 326 326 325 324 325 328 331 335 339 339 334
309 308 308 308 307 307 307 307 308 310 311 312 313 314 314 314 314 313 312 311 311 313 314 313 314 315 316 323 330 324 315 317 323 325 327 327 324 324 328 328 327 327 324 323 325 326 325 326 326 326 327 328 329 330 332 332 331 330 330 329 329 329 329 329 329 330 329 327 327 327 326 326 327 326 327 328 327 327 328 328 328 330 332 334 335 334 333
309 308 307 308 308 308 308 309 311 312 312 312 313 313 313 313 313 311 310 310 311 314 315 314 315 315 317 323 325 319 315 321 325 324 326 328 326 328 330 329 328 329 326 323 326 328 326 326 326 326 327 328 332 335 334 331 330 330 329 328 328 327 327 327 327 327 326 326 326 326 326 326 327 327 326 327 326 327 329 330 330 330 331 332 332 332 331
308 307 308 308 308 310 311 311 311 313 312 311 311 312 312 312 311 311 310 310 311 312 312 314 316 315 314 318 319 316 318 323 324 324 328 330 326 328 331 330 330 331 329 328 330 330 328 326 326 328 330 331 332 334 333 330 330 330 328 327 326 326 326 327 326 325 326 326 325 326 326 326 326 326 326 326 326 326 327 328 329 329 330 330 329 329 329
307 308 309 309 311 315 317 314 312 313 312 311 311 313 312 312 312 313 313 312 314 313 312 313 315 313 312 316 319 317 318 322 323 324 328 328 326 327 330 330 328 327 328 329 329 327 328 329 327 327 332 334 333 333 334 333 330 328 326 326 326 325 325 326 325 325 327 328 327 327 327 327 327 326 326 326 326 326 326 327 327 327 328 328 327 327 326
308 309 309 310 313 316 316 313 312 312 312 311 312 314 313 313 315 317 315 313 314 315 314 314 315 313 313 318 321 317 315 319 324 326 327 326 325 326 328 329 327 325 327 330 328 325 327 331 330 328 333 336 335 335 335 332 328 325 325 325 326 325 324 325 324 324 325 326 326 326 326 327 327 326 326 326 326 325 325 326 326 325 326 325 325 326 326
309 310 309 310 312 313 312 311 311 312 312 313 313 313 314 316 317 317 315 314 316 318 317 316 315 314 313 317 322 320 317 319 323 325 325 325 324 324 327 329 328 325 326 330 330 328 329 331 329 329 333 338 337 334 331 327 325 324 325 325 325 324 323 324 324 324 324 324 324 325 325 325 326 325 325 326 326 326 326 326 325 325 325 325 326 327 327
310 310 310 310 310 310 310 310 310 311 314 316 317 316 317 318 318 316 315 318 323 323 319 317 319 320 316 315 318 321 320 320 322 323 324 325 324 324 328 330 327 325 326 328 328 328 330 331 329 331 336 339 336 330 326 325 325 325 325 324 324 324 324 324 325 325 324 324 324 324 325 326 326 326 326 326 325 325 326 326 326 325 325 326 327 327 327
310 310 310 310 309 309 310 311 312 314 317 318 318 316 314 315 317 317 317 321 326 325 320 318 323 327 323 318 318 320 320 321 322 324 326 327 326 325 327 327 325 326 329 329 326 326 328 328 330 334 338 336 330 326 324 325 325 324 324 325 324 324 325 325 325 325 325 325 325 324 325 326 326 325 325 325 325 325 326 326 326 326 326 326 327 327 327
310 310 309 310 310 311 311 312 313 315 315 316 319 320 318 318 320 321 319 321 325 326 324 322 323 323 322 320 320 320 320 320 322 325 327 327 326 325 326 327 327 327 328 328 328 328 329 329 332 335 335 330 327 325 326 326 324 324 325 325 324 325 325 326 326 326 325 325 325 325 326 326 325 325 325 325 326 326 326 326 327 327 327 327 328 328 328
310 309 308 310 312 313 314 315 315 315 315 315 319 322 323 322 320 320 320 323 325 325 325 325 323 322 323 323 323 323 323 321 321 323 325 325 325 326 327 329 330 329 327 328 330 329 327 328 332 332 329 326 325 325 326 325 325 325 325 326 325 325 326 326 326 327 326 325 325 325 326 326 326 325 325 325 325 326 326 326 326 327 328 328 328 329 330
310 311 312 314 314 313 313 315 316 317 318 318 318 320 321 320 318 318 321 323 323 321 322 324 323 322 324 324 322 322 325 324 322 323 324 324 325 328 329 329 328 328 327 329 331 329 328 330 333 332 328 327 327 326 325 325 325 325 326 326 326 326 326 327 327 327 326 325 324 324 325 326 325 324 324 324 325 325 325 325 326 327 327 328 328 329 332
311 311 313 316 316 313 312 315 317 318 319 318 319 321 321 319 317 317 317 319 320 319 321 323 323 322 324 324 321 321 325 327 325 324 324 325 327 330 329 326 327 329 330 330 331 331 332 333 333 330 327 326 326 324 324 325 326 326 326 327 327 326 327 327 327 326 326 325 324 323 324 325 325 324 324 324 324 324 325 325 326 328 328 328 329 330 332
311 310 311 317 317 313 312 315 317 317 317 317 319 321 319 316 316 316 314 315 318 320 321 322 322 321 321 321 320 322 326 327 326 325 324 324 326 329 327 325 328 331 331 330 331 332 331 330 328 327 326 326 324 323 325 327 328 327 327 326 326 326 326 326 326 326 326 325 324 323 323 324 325 325 324 324 324 325 326 327 329 331 332 332 332 333 334
311 310 313 319 319 314 313 316 316 316 316 316 317 318 316 314 316 317 316 316 319 320 318 320 322 322 321 321 320 321 324 325 324 324 323 323 324 327 327 328 329 329 328 328 331 331 329 328 326 325 325 324 323 323 326 330 330 329 328 327 326 326 326 326 326 326 325 324 324 323 323 324 326 326 324 323 324 325 327 328 330 332 332 332 332 333 334
310 310 311 314 313 312 313 314 314 315 317 315 314 315 315 314 315 315 314 315 318 319 317 318 319 321 322 322 321 320 321 322 322 322 323 324 326 328 328 328 328 326 326 329 331 330 328 327 325 324 323 324 324 324 326 329 330 329 327 327 325 325 325 325 326 326 325 324 324 324 324 326 327 326 324 324 325 326 327 328 329 330 331 331 331 331 332
308 309 310 311 312 313 314 312 312 316 318 316 314 314 313 313 314 314 313 314 317 318 317 319 320 320 320 321 321 321 322 323 321 321 323 326 327 325 324 326 328 328 326 326 326 325 323 322 323 324 324 325 326 326 326 327 329 328 326 325 324 323 324 324 325 325 325 324 324 325 326 327 327 325 325 326 326 326 326 327 327 328 329 330 330 330 331
308 309 310 310 312 314 314 312 313 316 317 315 313 312 311 312 315 314 312 313 315 315 316 319 322 321 320 322 322 321 320 320 320 320 323 325 325 324 325 328 329 328 325 322 321 321 321 321 323 325 325 326 328 330 328 326 326 327 325 324 323 323 323 323 323 324 324 325 324 325 326 327 327 326 327 327 326 326 326 326 327 327 328 329 330 331 332
309 309 310 310 310 311 311 311 312 313 313 312 312 312 311 313 315 314 311 311 313 315 318 321 322 320 320 322 322 320 318 318 320 321 322 323 324 326 328 327 325 323 323 322 321 321 320 319 319 321 322 324 326 327 325 323 324 325 325 323 323 322 322 322 322 323 324 325 324 324 325 325 325 326 326 326 327 328 329 328 327 327 328 329 330 331 332
Wind_Speed
33 35 37 39 40 41 42 43 40 41 41 31 23 13 4 3 1 6 21 15 2 6 6 3 4 2 3 3 2 2 3 4 5 7 7 5 4 5 4 3 4 3 1 2 3 4 3 3 4 2 2 3 3 5 7 9 6 3 2 4 4 1 1 1 5 6 6 9 7 1 2 3 3 2 1 3 3 4 6 5 3 3 2 2 1 2 6
33 34 36 38 39 40 41 42 39 37 36 28 18 7 3 1 3 3 19 18 7 6 3 1 3 3 4 4 5 5 3 4 6 6 6 5 3 4 4 3 3 2 2 3 3 3 2 3 3 1 2 3 6 6 7 8 5 3 2 3 2 2 1 1 2 5 7 8 6 5 5 4 1 4 3 3 5 5 4 2 3 1 3 5 4 4 7
32 33 36 37 38 39 40 41 37 34 32 24 13 3 2 2 0 3 12 19 12 5 2 3 1 2 4 5 6 6 4 4 5 5 5 6 3 3 2 2 1 2 3 3 4 5 2 2 2 2 1 3 5 6 9 7 4 3 6 6 2 1 1 3 4 2 1 3 4 4 6 6 4 5 5 2 5 7 5 3 3 2 4 4 5 5 7
31 32 35 36 38 39 39 40 37 33 30 21 10 5 1 2 3 3 6 10 8 2 1 3 2 1 2 3 4 6 5 4 4 3 5 6 5 3 2 2 1 2 4 3 4 6 3 2 2 2 3 3 3 8 10 6 5 7 10 9 3 3 2 2 6 5 4 5 6 5 3 4 6 8 8 6 3 3 6 6 3 4 4 3 6 6 4
30 31 33 35 36 37 38 40 37 32 29 18 7 6 5 2 2 3 3 4 4 3 4 5 3 1 2 3 3 5 5 4 5 4 4 5 6 3 3 6 4 3 4 3 3 5 4 3 4 2 4 2 4 10 7 3 6 9 8 6 3 4 2 1 5 5 6 7 8 7 3 3 6 8 8 8 8 2 5 5 5 6 6 3 8 5 4
29 29 31 33 35 36 37 39 36 32 28 18 6 3 4 3 1 0 0 1 2 2 4 5 5 4 3 3 2 4 5 5 4 4 3 4 5 3 3 7 6 4 3 2 2 5 4 3 3 3 3 4 5 7 4 3 5 7 6 4 3 4 2 4 2 4 7 8 8 6 4 4 6 7 8 8 8 5 4 5 6 8 7 5 5 6 7
28 28 30 31 33 35 36 37 37 31 25 22 17 7 3 3 2 2 1 2 1 1 4 4 3 6 5 3 3 3 5 5 3 3 2 3 5 4 3 5 6 5 4 3 2 2 2 2 3 2 3 4 3 4 4 4 4 6 5 4 1 3 2 4 2 5 8 6 6 5 3 5 8 9 8 8 8 8 5 3 5 7 5 4 5 5 9
27 27 28 29 30 32 33 35 37 32 26 25 22 10 4 3 1 3 2 3 1 2 3 3 3 5 4 3 2 2 4 5 4 3 2 3 4 3 4 3 6 2 5 4 3 2 2 3 5 3 3 4 2 2 3 3 4 6 3 3 1 1 2 3 1 4 7 5 3 5 6 7 9 10 9 6 5 6 3 2 1 2 3 2 5 3 7
25 26 27 28 28 30 30 32 35 34 29 22 14 7 7 3 1 1 2 2 4 3 3 3 3 3 4 3 2 2 3 4 5 3 1 4 2 2 1 3 4 1 4 4 1 3 4 6 9 8 5 5 4 3 4 3 4 5 3 3 2 0 2 2 4 3 6 3 6 9 9 9 8 7 9 10 6 4 2 3 4 3 3 2 2 0 5
24 25 25 26 27 28 28 28 31 33 32 23 9 5 10 6 1 2 3 1 3 3 3 3 3 1 2 3 2 2 3 4 4 2 1 2 4 2 1 1 1 2 1 0 3 7 7 9 10 9 8 8 7 7 8 7 5 3 3 3 2 2 2 1 1 2 6 3 5 6 7 8 6 3 5 6 4 3 3 4 6 6 4 3 2 3 6
23 24 25 24 25 26 26 25 26 28 31 26 12 6 10 6 1 2 3 2 3 3 2 3 3 1 2 4 3 2 3 5 4 1 2 3 4 3 2 3 2 1 3 4 6 8 9 11 10 9 8 9 10 9 9 9 9 7 4 2 3 2 3 3 2 2 5 5 4 5 5 4 4 4 1 2 1 3 4 5 7 7 5 3 4 6 8
22 23 23 23 23 24 24 23 22 22 25 23 16 13 13 7 0 1 4 3 2 3 3 2 1 1 3 4 3 3 3 4 2 1 3 4 4 4 2 3 2 2 4 7 8 7 7 7 6 7 7 9 9 8 6 8 9 7 5 4 3 3 3 4 2 3 3 3 4 3 4 5 5 3 1 2 3 5 5 5 8 10 9 9 8 9 10
21 21 22 23 23 23 22 22 20 18 18 19 19 19 18 12 3 2 4 3 1 2 1 2 2 1 3 4 3 3 4 4 4 2 2 3 3 4 3 1 2 4 7 9 8 5 4 4 3 4 4 4 4 3 4 5 5 2 1 4 4 3 3 2 1 2 2 0 2 3 6 5 2 1 2 3 4 4 3 5 9 11 11 11 10 11 12
20 20 20 22 22 22 21 21 20 17 14 16 18 19 19 16 8 2 2 3 1 2 1 2 4 3 4 4 3 3 4 4 5 3 2 2 2 3 3 3 6 9 7 6 4 3 2 2 3 4 4 5 5 1 2 4 3 2 3 2 2 3 3 2 2 3 2 2 3 2 3 5 3 3 3 3 3 4 1 1 5 9 10 10 10 11 12
19 18 19 20 21 21 20 20 21 17 13 12 14 16 19 19 12 3 1 3 1 2 1 1 2 2 4 4 3 3 4 4 4 4 3 2 2 3 4 5 10 11 5 1 2 2 2 1 2 3 3 3 2 2 3 4 3 2 4 6 3 2 4 4 4 3 2 3 2 1 2 4 2 2 4 4 4 5 2 3 2 6 10 11 11 11 13
17 17 17 18 19 20 20 19 20 19 14 11 11 14 17 18 14 7 2 3 2 2 2 2 2 0 2 3 2 2 1 2 3 3 4 4 4 5 6 8 11 9 3 3 2 2 3 1 1 1 1 0 0 2 2 3 5 5 5 6 6 3 1 3 3 3 1 3 3 3 4 3 2 7 10 8 5 4 3 3 2 6 10 11 10 11 12
16 16 16 17 18 18 19 19 20 19 16 12 10 11 15 16 14 10 3 3 2 2 4 1 3 2 1 2 2 1 0 1 2 1 2 3 4 5 7 8 8 6 4 4 2 3 4 2 1 2 1 1 0 1 2 2 4 6 6 6 6 5 3 2 2 3 2 2 3 3 2 1 4 8 11 9 4 2 4 2 3 6 10 10 9 10 10
15 14 14 15 16 17 18 20 20 19 17 14 9 8 12 14 13 9 3 2 2 2 4 1 3 1 1 2 1 1 1 1 2 1 2 3 2 3 5 5 5 5 4 4 3 3 3 2 2 2 1 3 1 1 1 1 2 4 5 4 3 3 3 2 1 1 1 1 2 2 0 0 4 10 10 7 2 2 4 2 4 5 8 8 7 8 8
14 13 13 13 15 15 16 19 21 19 18 16 10 5 9 14 14 11 6 3 1 1 4 1 1 3 3 1 1 1 1 1 1 1 1 2 2 3 3 2 2 3 3 3 3 2 3 2 1 1 0 3 2 1 1 1 2 2 3 2 2 2 3 2 1 1 2 0 2 2 1 2 5 11 10 4 1 2 2 2 2 4 6 7 7 7 8
13 13 11 11 13 14 14 16 20 20 18 18 14 6 6 12 14 11 7 3 1 3 5 3 4 5 3 1 2 1 2 1 1 2 1 2 3 3 3 2 2 3 3 3 3 2 1 1 2 1 1 2 2 1 1 2 3 2 1 1 1 1 2 3 2 1 2 1 0 0 1 3 7 11 8 3 2 1 3 0 1 2 4 6 6 7 8
12 13 12 10 10 12 14 15 18 19 18 19 17 10 6 9 11 9 6 1 3 1 3 2 4 6 6 4 4 3 3 4 2 1 2 3 3 2 3 2 2 1 1 1 2 1 0 0 1 1 1 2 1 1 1 3 4 3 2 1 1 1 1 1 2 1 1 2 1 0 2 4 6 6 3 1 1 2 2 1 1 1 3 4 4 6 8
11 13 13 11 9 10 13 13 16 17 17 18 19 15 11 10 9 8 8 5 4 6 8 8 11 14 14 14 12 11 11 11 9 5 2 1 2 0 2 1 2 2 1 2 2 1 1 0 0 1 1 1 1 1 1 1 3 4 2 0 1 2 0 0 2 2 1 2 3 3 3 5 5 3 3 4 3 2 1 2 1 1 3 2 2 6 8
10 12 13 12 9 9 11 13 15 16 16 17 19 18 17 13 10 11 10 5 5 8 12 12 12 12 10 6 3 4 8 12 14 14 9 3 1 2 2 2 2 2 1 2 2 1 1 1 1 0 1 2 1 1 2 1 2 3 2 1 3 2 1 1 2 4 3 2 4 4 4 5 5 4 4 4 3 2 1 0 1 2 4 3 1 2 5
9 10 12 12 11 9 10 12 14 15 15 16 17 18 17 11 10 15 11 2 1 4 5 4 4 3 1 2 6 10 11 9 12 13 12 9 4 1 1 3 2 1 2 2 2 2 1 1 1 1 1 2 1 1 2 2 3 2 1 3 4 3 1 1 2 3 2 2 4 5 5 6 5 4 4 3 3 3 2 2 3 4 4 5 4 3 2
9 9 11 13 12 9 8 10 13 14 15 15 16 17 15 8 7 12 9 2 2 3 1 3 4 1 1 9 14 12 7 4 6 8 11 15 14 7 2 1 0 1 2 2 1 2 1 1 0 1 2 2 1 1 2 2 2 1 0 2 3 2 3 2 2 1 1 4 7 7 7 6 5 3 3 3 3 5 4 4 5 5 5 6 6 3 1
8 8 10 14 13 8 7 10 12 13 14 14 15 16 12 6 5 7 5 2 2 0 1 3 4 3 9 16 15 8 4 5 7 10 13 16 19 18 12 7 5 4 2 1 1 1 1 1 1 1 2 2 2 2 2 3 2 1 2 4 3 1 3 2 1 2 4 5 6 7 7 6 4 4 5 3 3 5 6 6 6 6 7 7 5 3 3
7 7 10 14 13 9 7 9 11 13 14 14 13 10 6 3 4 5 5 4 2 1 2 2 4 9 15 15 11 9 9 8 8 10 12 14 17 20 17 10 6 4 2 1 1 1 3 1 1 2 3 2 2 2 2 3 2 1 3 4 2 1 2 2 1 3 4 4 4 4 4 5 7 8 8 6 3 4 6 6 6 7 8 7 5 3 2
7 7 11 15 14 9 7 9 10 12 14 13 9 5 4 4 5 5 5 5 4 1 2 3 6 12 14 11 11 13 12 8 6 8 12 13 14 18 17 11 5 2 1 1 1 1 2 1 2 2 2 2 1 1 2 1 0 2 4 4 2 4 4 3 2 3 5 6 7 4 3 5 7 8 9 8 5 4 6 7 7 7 8 6 5 5 5
7 8 12 14 12 7 6 9 11 11 13 13 6 2 3 5 6 6 6 7 5 1 2 3 5 6 7 10 15 16 13 10 8 9 12 13 13 15 15 10 6 4 3 3 2 2 2 3 3 2 2 2 2 1 2 0 1 4 5 5 4 5 5 5 5 5 6 7 7 5 4 6 8 9 11 9 5 4 6 7 6 7 8 7 6 6 6
7 10 13 13 9 6 6 9 10 11 13 13 7 1 1 2 2 3 4 6 7 4 0 1 3 4 5 9 11 13 15 16 12 9 11 12 11 13 14 10 6 4 3 1 2 3 2 2 2 2 2 2 2 1 1 1 2 4 5 5 5 5 4 4 6 6 6 7 6 5 6 8 8 8 9 7 5 4 5 6 7 7 7 7 6 6 7
8 11 12 9 6 5 7 8 9 10 13 12 6 2 2 1 1 2 1 4 7 5 2 1 2 4 5 5 5 9 17 17 11 7 7 8 6 8 10 9 5 4 4 2 2 2 2 2 2 1 2 2 3 2 2 2 2 5 6 4 4 4 5 5 5 6 7 7 7 6 7 7 5 5 5 6 6 5 5 6 9 10 10 9 8 8 9
10 12 10 6 4 6 7 8 9 10 12 11 7 2 2 3 5 6 7 8 8 4 2 1 3 2 3 5 6 10 14 12 7 5 3 1 1 1 4 5 3 4 4 2 1 2 2 3 2 1 2 3 3 2 1 2 4 7 7 5 4 4 5 5 5 5 6 5 4 5 6 5 4 4 5 6 8 8 7 7 11 13 12 11 10 10 11
10 10 9 6 6 7 7 8 9 10 11 10 6 3 3 3 4 5 6 7 5 1 2 1 3 2 2 4 6 8 9 6 3 4 3 1 2 2 1 1 1 2 3 2 2 2 1 2 2 1 2 1 2 1 1 4 6 7 6 6 6 5 5 5 6 6 5 4 3 3 5 7 7 7 7 8 9 9 9 9 11 11 9 8 8 8 7
9 9 8 7 7 7 8 9 9 8 7 5 3 4 5 4 4 4 3 2 1 2 1 1 1 3 4 3 3 6 8 5 2 3 3 3 3 2 1 2 2 1 2 2 1 1 1 1 2 1 2 1 1 1 2 5 6 6 5 5 5 5 5 6 5 5 5 4 4 5 6 7 8 9 8 8 8 10 10 9 7 6 6 5 6 7 6
7 8 7 6 7 9 9 8 7 4 4 4 4 5 6 6 5 4 1 2 2 2 1 1 0 2 3 3 2 5 7 4 1 1 2 2 3 3 1 1 2 1 2 1 0 0 1 2 2 1 1 0 1 2 4 5 5 6 6 6 5 4 4 6 6 6 6 5 6 6 7 6 7 9 9 9 8 8 8 7 5 4 5 6 6 6 5
7 7 7 7 8 8 6 4 2 1 3 5 5 7 7 6 4 2 1 2 1 1 1 1 0 1 0 0 3 5 7 4 2 2 1 2 3 2 2 2 1 2 1 1 0 1 1 1 1 0 1 1 2 4 5 4 5 7 7 6 6 4 4 6 8 8 8 8 8 8 8 7 8 8 8 9 8 6 7 7 6 5 5 6 7 6 5
7 6 7 7 6 4 2 1 1 2 3 6 7 7 6 4 2 2 1 0 1 1 1 0 2 2 2 2 3 3 4 3 2 3 2 1 2 2 2 2 1 2 2 2 1 2 1 0 0 1 2 3 4 5 4 4 5 6 6 7 7 5 5 7 7 8 9 10 10 9 7 7 8 7 7 8 8 7 7 8 7 6 7 7 7 6 6
5 5 5 4 2 1 1 1 1 2 7 8 6 4 3 1 1 2 2 1 1 1 1 1 2 2 1 2 3 2 2 2 2 3 2 1 2 2 1 1 1 1 2 2 3 2 0 1 1 2 4 4 3 4 5 5 5 5 5 6 7 6 6 6 6 6 8 10 10 9 7 8 10 9 8 8 9 7 7 7 7 6 7 7 7 7 8
3 3 4 3 1 0 0 1 2 5 8 6 2 0 0 1 2 1 1 0 1 1 1 1 3 2 3 3 4 3 1 0 3 2 2 1 2 1 1 1 1 1 1 2 3 2 1 1 1 1 3 4 4 4 5 4 5 5 6 6 6 6 6 6 6 7 8 9 10 10 9 9 12 12 10 9 9 8 7 7 7 7 7 8 9 9 8
1 2 2 1 1 3 4 5 5 5 3 2 2 1 1 1 1 0 0 1 1 1 2 2 2 2 3 3 3 3 2 2 0 1 2 2 1 0 1 1 1 1 1 2 2 1 1 1 2 2 2 3 4 4 4 5 6 6 6 5 6 7 7 6 8 9 9 10 11 11 10 11 12 12 11 11 11 10 9 7 7 9 10 9 10 10 11
1 1 0 2 6 9 8 6 3 1 1 1 2 2 1 1 1 1 1 1 2 2 2 2 0 2 2 4 3 3 3 2 1 1 0 1 1 1 1 1 1 1 0 3 2 1 2 0 1 2 3 4 5 5 5 6 7 7 6 6 7 8 8 8 9 11 11 10 10 9 10 12 12 11 11 11 10 10 9 8 8 11 12 11 12 14 16
1 1 4 7 9 8 6 2 1 2 2 1 1 1 1 1 1 1 0 1 2 2 1 2 2 3 3 4 4 3 3 1 1 1 1 1 1 0 1 1 1 1 1 3 1 2 1 1 2 3 5 5 5 6 6 6 7 7 7 7 7 8 8 8 10 12 13 11 8 8 9 11 11 11 12 12 11 10 10 9 9 12 14 15 16 17 19
2 4 6 6 5 3 2 1 1 1 1 1 1 1 2 2 1 1 1 1 1 1 1 2 2 2 2 2 2 2 1 0 1 1 1 1 1 1 2 1 1 1 2 1 1 2 0 1 2 4 5 5 6 6 6 6 6 7 8 8 9 10 11 9 9 12 14 13 10 9 10 11 12 13 13 12 11 10 11 11 12 13 16 17 17 18 19
3 4 3 2 1 2 2 1 0 1 1 0 1 1 0 1 1 1 1 2 1 1 2 2 1 2 2 2 1 1 1 0 1 1 1 1 1 1 1 1 2 2 1 1 1 0 2 2 3 5 5 5 6 6 6 6 6 6 8 10 11 12 11 10 9 10 10 10 10 10 10 10 12 13 12 11 10 9 9 10 12 14 16 16 16 17 17
1 2 2 2 2 1 1 1 1 0 1 2 2 3 2 1 0 2 3 2 1 2 3 2 1 1 3 3 1 1 1 1 1 0 1 0 1 0 1 2 1 1 1 1 1 1 1 3 4 5 5 6 6 6 6 6 6 6 7 10 11 10 9 9 9 8 7 7 9 9 9 10 10 10 10 11 11 9 9 11 13 14 14 13 12 13 13
1 1 2 2 1 1 1 0 1 1 2 2 2 3 3 3 3 4 3 2 2 3 5 4 2 2 3 3 1 1 0 1 1 1 0 2 1 2 2 0 1 2 2 1 2 1 2 4 5 5 6 7 7 6 5 6 6 6 6 8 10 10 10 10 9 8 8 9 10 10 10 10 11 9 9 11 12 10 11 13 13 11 8 7 8 10 12
0 1 2 2 0 1 0 1 3 3 2 2 3 4 3 3 4 3 2 2 3 4 4 3 2 2 3 2 1 1 1 1 0 1 0 2 1 2 1 1 1 0 1 1 2 2 3 5 6 6 7 8 6 5 5 6 6 6 7 8 9 10 11 11 10 9 10 12 11 10 11 12 12 10 9 10 11 11 12 12 9 6 5 5 8 9 10
1 1 2 2 1 1 2 2 2 2 2 2 2 2 2 2 3 3 3 3 2 3 4 3 2 2 2 1 1 1 1 0 0 1 0 1 0 1 2 1 1 1 1 2 3 3 3 5 6 7 7 7 6 5 5 6 6 7 7 8 10 11 12 11 10 11 12 12 11 10 12 14 13 11 9 9 9 11 11 8 5 4 4 5 7 8 7
2 1 1 1 1 2 3 1 1 3 3 3 2 2 2 2 3 5 4 3 3 3 3 1 1 1 2 2 0 0 1 1 1 1 1 1 0 1 0 0 2 2 2 2 3 3 4 5 6 6 7 7 6 5 4 6 7 7 6 7 10 11 11 10 11 12 13 12 12 14 15 14 12 10 9 8 8 9 9 6 3 4 5 5 5 6 6
1 1 1 1 1 2 2 0 1 2 4 3 2 1 2 3 4 4 3 3 4 4 3 1 0 1 1 1 2 1 2 2 1 1 0 1 1 2 1 1 1 2 3 3 3 4 4 5 5 6 7 7 6 6 5 6 6 7 6 8 11 12 12 12 13 14 14 15 15 16 15 13 11 10 9 8 9 10 8 5 5 6 7 7 7 7 8
0 0 1 2 2 2 2 1 2 3 4 4 3 2 2 2 3 3 2 4 4 4 3 2 1 1 2 1 0 1 1 1 0 0 1 2 2 1 1 2 2 3 3 4 4 5 5 5 4 5 6 7 6 6 6 6 6 8 9 10 12 13 13 13 14 14 14 16 17 17 16 15 14 12 9 8 8 7 5 6 9 11 10 10 11 11 10
1 1 2 3 2 3 2 2 2 3 4 4 4 3 2 3 5 4 3 4 3 2 2 2 1 2 1 1 2 1 1 1 1 1 2 2 1 2 3 3 3 3 4 4 5 4 5 5 5 5 6 6 7 7 7 7 7 8 10 11 12 11 12 14 16 16 15 16 18 19 18 18 18 13 7 4 4 4 3 6 10 12 10 10 12 13 11
Wind_Direction
6 6 6 6 7 8 7 8 6 360 1 4 2 4 42 65 146 351 4 9 125 79 47 333 11 38 303 320 300 319 22 18 354 7 19 25 34 32 27 16 29 44 16 350 16 32 31 23 48 73 28 24 315 315 345 342 343 39 17 303 275 239 100 290 285 285 293 295 292 237 140 139 146 248 246 140 145 150 157 185 188 150 172 165 99 279 269
7 7 7 6 7 9 8 9 8 3 1 1 1 14 110 84 229 330 12 26 77 90 62 320 4 337 314 10 11 352 39 43 16 27 19 359 29 56 25 3 14 10 357 23 21 9 57 63 33 50 69 338 304 323 357 353 359 26 338 306 302 318 353 62 351 343 335 334 350 5 356 6 357 273 259 166 133 114 118 130 113 171 214 154 137 245 256
8 8 8 7 8 9 10 9 9 6 2 3 11 39 153 44 199 263 4 28 56 93 127 144 123 331 353 34 23 360 9 25 26 49 31 5 31 72 13 344 21 359 1 35 16 2 66 94 2 12 43 308 297 333 348 343 352 335 312 318 340 41 26 87 94 71 311 313 320 316 322 325 311 300 296 256 139 134 142 124 110 220 228 146 154 226 264
9 10 9 8 8 9 10 10 11 9 4 5 26 47 80 68 41 311 336 17 45 70 60 81 104 40 34 48 33 15 358 331 344 42 53 19 19 54 23 346 37 43 29 46 24 2 3 56 52 21 336 321 306 325 327 318 321 332 337 345 42 111 51 106 136 157 190 210 235 250 279 290 293 310 315 303 276 166 125 105 142 194 173 181 218 210 269
10 11 10 10 9 9 11 12 12 12 8 9 31 43 44 91 52 2 326 348 21 20 11 32 34 17 91 77 27 11 2 336 337 8 50 27 16 40 32 14 27 24 16 53 37 349 336 21 44 351 318 323 305 312 310 285 317 337 349 353 48 87 357 190 157 187 211 216 240 255 251 235 270 298 299 293 296 285 122 136 195 165 130 242 254 191 208
9 11 12 12 11 10 12 13 14 16 14 19 53 56 27 68 122 331 331 333 8 11 348 352 5 20 65 84 46 20 17 13 354 342 3 27 23 26 20 14 16 7 7 84 46 345 343 13 9 321 319 335 320 319 311 258 313 345 354 347 73 106 242 234 200 256 244 230 239 247 247 249 267 284 276 271 278 262 200 190 189 154 152 228 231 171 211
9 11 13 15 14 12 12 13 17 20 22 39 62 65 3 60 73 304 9 67 187 252 313 316 6 29 41 52 47 47 29 13 335 304 341 14 7 32 56 351 342 6 37 85 97 7 351 338 317 295 332 335 319 325 314 284 328 3 353 318 87 115 252 245 248 294 282 256 240 246 292 315 312 307 286 264 260 252 244 232 188 176 192 205 149 176 239
7 10 14 16 17 16 14 15 18 20 26 44 58 53 8 56 45 314 13 33 328 287 326 351 46 33 30 38 28 50 45 13 324 300 47 50 351 24 81 326 310 11 60 75 112 157 203 234 256 261 326 319 269 258 269 266 334 351 334 297 324 45 278 251 104 330 301 294 304 313 334 335 317 312 317 317 291 263 268 1 335 222 246 195 137 189 263
7 9 13 16 20 20 17 17 20 22 29 45 61 41 16 24 238 2 74 28 350 339 340 28 69 33 14 21 359 16 33 359 320 298 88 102 65 14 37 305 304 356 68 79 140 259 250 236 240 238 240 246 234 238 252 261 328 328 284 272 304 353 276 307 52 354 290 313 0 339 335 338 327 329 342 342 326 282 288 40 32 341 306 280 142 184 275
8 8 11 15 20 23 22 21 22 24 32 47 67 24 10 11 315 32 84 80 2 359 341 13 65 68 355 354 350 14 8 343 345 336 320 72 74 51 118 125 349 350 58 29 292 285 274 258 254 248 241 239 234 240 253 259 267 266 257 272 254 187 216 260 69 301 275 306 355 339 347 351 330 320 328 310 291 306 341 31 27 6 344 303 257 249 273
8 9 10 12 18 23 25 26 26 27 33 43 57 32 10 12 315 359 58 75 351 1 32 26 48 72 351 348 346 1 6 0 16 52 280 326 1 9 83 94 39 282 225 259 288 279 265 259 257 257 254 254 253 249 249 252 246 232 223 259 291 248 222 231 190 201 267 299 348 351 356 338 265 236 251 279 294 34 47 44 16 3 359 314 275 275 293
8 10 10 11 15 20 26 28 29 33 35 38 46 39 19 13 285 15 66 88 323 353 56 43 38 28 337 342 342 335 343 340 330 213 221 271 311 331 19 56 16 290 267 289 301 295 282 273 268 265 256 256 263 256 237 240 246 238 209 206 260 275 238 240 211 178 245 316 28 355 278 241 228 229 64 70 79 80 86 61 23 11 3 348 327 314 310
6 9 10 10 12 17 24 29 30 34 35 33 38 39 26 20 44 75 75 92 313 339 43 310 311 334 322 326 326 313 311 302 293 274 232 248 286 319 333 346 300 293 295 301 309 323 318 310 320 310 293 307 314 266 228 250 265 295 165 185 209 231 216 218 229 202 220 191 130 204 239 250 273 346 20 47 53 47 48 33 19 14 7 354 339 325 318
3 7 10 10 11 14 21 27 28 32 36 31 34 38 31 28 40 68 72 70 303 264 237 315 329 339 325 325 330 322 327 333 329 328 310 259 268 298 296 284 295 298 298 303 326 9 8 348 9 349 328 359 12 319 286 316 338 27 358 310 212 194 191 191 228 222 179 184 211 230 286 303 337 44 42 26 356 337 10 71 3 5 8 358 345 337 335
1 4 8 8 10 13 17 24 26 27 35 33 30 34 32 29 31 34 104 95 346 303 320 267 298 325 313 305 327 350 343 344 340 330 325 310 283 287 282 293 306 307 307 344 11 39 45 27 43 14 346 17 20 294 316 337 328 327 322 318 318 199 189 184 209 222 133 141 215 293 245 238 248 351 350 353 306 274 200 138 328 347 2 357 349 349 350
359 2 6 7 9 10 15 23 23 22 28 30 26 32 30 25 23 21 60 107 83 314 273 220 191 136 307 293 330 26 350 325 334 335 337 334 319 303 301 309 317 322 357 54 48 63 55 43 119 88 330 137 235 292 330 342 315 314 319 323 338 347 183 159 185 234 151 150 195 226 211 202 359 331 321 331 308 252 155 109 322 338 355 353 350 350 352
360 2 3 4 8 9 14 20 20 19 22 19 17 30 30 22 18 16 28 99 86 278 261 209 98 77 354 310 318 343 308 317 353 22 337 312 307 314 321 326 332 343 28 51 33 50 56 40 56 58 306 261 148 318 332 359 326 321 329 339 353 2 11 74 171 239 232 165 208 240 219 107 360 327 315 317 300 189 120 128 277 332 350 348 346 342 340
358 360 358 1 5 7 13 17 15 16 20 18 15 27 29 21 17 18 41 101 65 288 257 198 87 96 223 185 206 261 343 14 24 21 303 297 298 311 316 323 337 346 16 53 48 47 57 34 33 69 284 284 40 79 337 344 307 300 319 334 346 347 343 28 115 241 292 187 218 260 304 348 326 323 314 296 274 103 102 208 258 319 341 342 343 333 327
355 354 352 357 2 4 9 13 12 12 17 21 22 27 25 17 13 21 43 88 91 284 264 247 147 217 229 175 170 288 323 34 91 77 348 324 292 287 295 303 340 346 11 56 59 54 60 19 335 86 32 309 342 59 330 286 250 278 329 339 338 334 321 334 31 356 340 185 204 263 265 222 313 325 313 286 202 136 160 205 265 311 328 339 345 337 330
353 354 351 352 356 1 6 9 9 9 11 18 24 32 26 11 7 14 33 78 143 284 278 246 205 222 227 152 126 82 24 19 97 121 157 246 289 348 17 356 337 355 11 42 44 36 55 5 312 11 61 293 295 36 342 293 268 269 309 312 272 277 315 321 318 301 336 7 55 18 251 274 332 340 333 349 53 196 215 115 40 311 323 338 343 346 343
348 353 353 350 351 357 1 3 6 6 6 11 15 17 13 2 1 2 359 32 135 283 291 225 214 243 248 242 237 232 224 223 220 185 196 240 282 44 71 265 272 2 17 58 67 14 341 162 300 335 3 285 300 29 353 323 306 275 234 220 297 309 311 304 284 281 20 1 327 146 224 278 324 348 332 311 329 234 249 20 45 320 317 320 332 345 344
343 349 352 350 347 351 354 356 1 3 2 3 5 7 3 359 7 5 338 297 221 238 266 276 281 277 274 275 271 258 243 239 247 252 223 251 302 159 140 234 255 209 184 106 81 328 315 111 265 321 322 288 310 341 315 307 304 296 292 300 303 301 324 265 271 263 220 224 251 264 267 277 300 318 275 266 271 276 317 1 10 319 275 266 340 348 338
337 344 349 350 346 345 347 349 353 356 358 357 358 359 355 351 3 6 346 298 248 264 270 277 291 291 285 286 289 279 265 253 251 250 231 197 308 275 188 210 253 238 189 126 137 190 207 191 200 314 276 244 225 337 327 288 253 282 311 301 273 289 42 94 269 278 280 269 269 281 297 299 301 299 284 270 267 274 283 218 230 251 253 252 261 334 323
332 336 341 344 344 340 339 342 343 347 352 354 352 351 350 348 356 0 358 5 324 318 291 284 314 314 295 347 333 319 301 264 247 249 233 208 208 311 288 218 210 10 335 260 170 115 116 218 187 115 261 243 184 189 283 274 255 256 306 314 299 304 343 283 282 307 334 305 278 285 299 296 290 294 301 290 265 256 234 211 223 232 246 252 245 248 296
332 328 328 334 337 334 331 332 334 339 347 352 350 347 348 351 359 3 12 42 359 349 346 312 304 238 328 319 313 311 302 256 240 244 232 221 215 212 239 271 212 21 326 267 126 75 52 264 172 155 244 243 204 200 219 236 253 238 293 285 280 311 338 311 283 296 276 258 272 292 299 280 252 244 268 257 240 252 254 242 243 253 257 249 237 229 272
332 320 317 326 332 328 319 323 330 337 347 354 350 346 348 358 7 14 22 6 318 327 350 300 276 290 327 321 314 312 307 276 259 244 239 238 232 230 244 278 304 318 338 72 121 140 162 173 146 181 225 225 198 191 201 227 249 247 243 241 232 287 326 297 255 299 294 277 294 320 328 319 308 304 299 275 223 244 255 251 251 260 263 259 244 207 181
320 309 310 322 328 323 314 324 335 341 350 357 354 350 358 19 15 17 19 17 20 4 329 300 273 304 317 313 306 316 320 303 278 254 246 245 237 234 238 247 270 299 330 354 292 123 112 85 229 199 215 232 204 197 224 240 238 241 260 253 208 197 260 253 304 316 287 267 291 326 331 311 302 302 307 308 283 264 273 275 272 266 265 270 281 282 246
305 301 309 318 324 322 322 334 341 343 350 357 359 10 43 46 32 31 37 47 60 48 276 269 283 302 310 304 304 321 329 318 287 261 252 248 238 229 226 223 229 247 182 184 234 137 134 192 229 207 223 239 229 258 273 272 225 252 256 249 198 188 198 190 203 250 252 262 276 270 238 258 273 282 294 304 303 289 288 290 287 283 282 281 280 284 288
297 301 312 318 321 323 330 340 340 339 347 356 3 72 87 53 46 55 61 55 46 16 254 287 299 297 306 307 307 317 332 331 306 269 252 248 235 221 216 214 213 198 159 143 158 169 185 206 206 209 216 186 181 274 303 352 264 259 242 224 217 212 195 190 213 239 259 272 272 253 237 258 275 283 290 296 301 290 285 288 287 286 291 291 271 260 265
293 303 313 316 320 326 332 338 338 335 342 352 3 60 66 33 53 86 75 42 19 7 8 327 314 298 307 307 300 309 325 330 323 286 249 236 226 218 214 210 198 177 160 150 181 190 211 237 236 258 256 189 160 221 249 181 246 270 250 228 230 240 236 230 230 237 255 268 269 263 262 266 273 283 285 283 281 279 285 293 292 288 292 292 275 258 251
294 307 315 316 322 329 330 333 333 330 336 347 3 60 75 7 266 252 284 341 352 8 68 195 280 294 310 303 281 303 317 322 322 302 256 232 231 225 210 197 185 176 174 190 215 196 194 214 227 271 269 198 167 174 181 165 248 278 265 244 233 240 251 259 250 241 251 265 278 285 279 271 279 298 297 291 296 302 298 294 294 298 302 297 281 263 250
299 310 315 316 320 325 325 326 326 324 327 331 328 285 255 277 286 287 284 298 324 360 65 311 313 316 318 306 295 307 314 313 315 324 307 233 295 230 180 172 177 182 168 147 182 219 202 191 195 227 227 187 166 152 142 171 226 259 272 285 287 274 267 269 270 264 259 256 268 298 304 292 275 269 275 290 303 306 299 292 294 299 304 302 292 274 254
299 306 311 311 313 318 320 320 320 321 324 327 328 336 342 326 307 291 277 281 306 23 133 337 331 303 284 297 307 327 337 331 327 351 358 359 20 34 92 92 88 173 174 160 193 232 221 154 158 256 271 215 145 122 201 226 240 261 287 301 297 292 288 282 279 281 274 249 224 249 277 281 278 274 274 281 287 286 282 287 295 302 311 315 305 291 267
295 303 306 303 308 314 315 313 315 322 335 353 27 39 18 355 341 335 291 236 146 81 95 45 335 294 299 309 317 347 1 360 337 351 345 325 359 30 357 345 20 99 203 203 190 240 272 178 170 214 271 273 98 125 247 257 264 278 292 293 287 292 300 296 287 279 276 269 252 247 252 264 279 287 285 281 278 277 279 284 289 300 315 316 301 298 300
302 308 304 301 308 311 310 312 317 331 9 29 30 15 357 334 325 338 328 162 107 51 353 2 6 299 331 345 312 332 356 3 301 292 293 303 348 21 96 2 356 305 229 220 135 225 246 200 176 184 244 211 147 221 242 260 279 291 297 296 295 303 308 303 296 289 287 289 285 277 273 271 274 279 280 279 278 278 281 282 278 276 289 293 289 293 302
312 311 305 307 313 310 307 316 335 43 43 18 346 334 335 329 326 343 152 168 141 152 200 351 302 223 239 291 269 313 347 355 299 288 294 297 327 356 72 74 340 263 246 36 345 257 264 213 165 219 288 210 203 228 232 239 272 289 296 292 287 286 280 278 281 288 293 294 288 284 283 278 271 272 277 278 277 275 276 279 282 278 274 277 282 288 292
311 310 307 308 315 319 328 2 107 99 16 342 316 306 313 328 8 43 56 46 239 202 166 287 263 224 185 210 253 309 344 334 306 328 340 315 303 328 42 68 273 275 354 8 272 234 262 347 94 258 250 225 226 245 246 242 259 275 285 287 285 282 274 272 278 287 292 293 290 286 284 281 276 273 274 275 276 274 271 271 272 271 271 274 277 280 282
307 312 320 327 344 32 32 56 92 3 335 327 311 288 297 2 61 27 13 30 240 229 164 189 252 241 179 220 263 294 312 309 345 358 327 289 312 327 17 70 230 278 342 314 260 234 52 37 50 242 253 266 279 268 257 257 264 267 272 277 280 281 279 279 284 287 289 292 294 292 291 290 287 284 279 276 275 271 266 266 265 261 263 266 268 270 274
312 334 351 3 16 174 215 340 325 314 315 322 331 184 315 32 48 7 345 356 244 239 182 203 241 220 182 222 275 283 241 36 16 358 298 297 323 315 352 14 308 335 12 310 285 313 6 341 327 301 288 300 300 271 264 281 293 286 280 278 279 282 283 280 278 276 274 277 281 283 283 283 286 287 285 281 279 273 265 263 263 262 261 261 263 265 266
28 9 6 355 294 299 309 310 302 294 295 343 43 66 30 17 56 135 29 352 309 247 192 195 233 221 191 207 273 283 219 170 36 294 265 273 283 305 50 352 276 45 36 293 281 358 54 288 318 338 300 271 268 274 292 307 300 291 291 293 293 293 291 287 284 283 277 275 276 276 273 272 277 281 283 282 282 279 274 266 261 261 261 261 262 262 260
96 73 322 297 305 312 317 316 305 273 102 54 33 43 36 328 282 216 92 36 291 263 225 181 266 290 230 194 208 251 247 224 186 138 159 284 301 48 63 278 271 50 349 260 263 62 77 11 319 302 259 253 270 291 307 309 302 300 305 304 302 302 302 299 296 293 289 286 284 280 277 278 278 277 276 276 275 273 271 269 267 265 262 261 264 266 266
127 294 309 311 310 313 323 346 54 71 60 52 39 14 343 296 277 293 67 187 231 258 240 185 208 247 227 188 185 223 244 237 81 84 88 287 289 86 100 286 345 54 248 250 262 62 57 337 300 269 259 270 290 302 308 306 301 305 309 307 303 303 304 304 305 302 296 289 283 281 284 284 281 274 270 269 267 266 264 263 265 268 268 267 267 267 267
269 295 311 315 318 338 1 6 37 49 48 64 60 356 325 318 288 272 277 258 238 258 254 236 258 286 260 203 203 231 244 188 77 92 152 257 278 55 52 19 22 205 244 265 57 60 322 254 246 257 271 288 298 302 305 301 298 305 311 309 304 302 301 302 304 302 298 295 294 296 296 290 284 280 275 267 260 260 264 265 266 269 271 271 270 268 268
274 304 332 339 349 25 21 344 335 109 149 176 130 141 265 346 6 290 279 293 298 284 262 258 306 339 305 260 241 244 254 23 61 80 240 266 315 58 66 251 241 242 281 32 57 275 252 238 241 257 276 292 298 301 307 308 311 317 314 309 308 309 309 307 304 301 301 304 308 310 309 303 297 294 288 277 267 261 265 271 275 277 277 275 273 271 272
272 347 33 28 350 6 56 340 327 315 199 205 187 172 174 163 315 262 250 238 245 291 298 293 250 249 272 276 275 233 232 65 57 259 247 347 18 302 227 230 251 303 5 355 322 301 279 265 267 277 288 294 299 309 316 314 309 307 305 307 312 316 318 316 311 307 309 312 314 319 321 314 306 302 297 291 286 279 272 273 277 282 283 282 278 279 283
125 98 96 95 308 305 118 125 309 267 197 201 197 183 184 205 233 247 257 261 275 298 305 301 275 261 274 283 288 253 188 86 84 251 174 82 60 254 242 261 17 30 40 356 313 288 266 270 283 297 299 295 299 312 318 306 298 300 309 312 314 318 322 319 313 314 317 315 315 325 329 315 301 296 296 299 301 297 285 278 278 279 281 282 283 289 297
94 39 81 101 293 318 106 188 217 218 213 216 206 197 210 244 257 260 268 264 259 278 296 298 283 274 276 275 275 290 315 75 86 275 46 103 220 273 332 36 350 203 110 310 280 264 272 288 296 297 294 296 306 315 308 296 296 306 313 311 313 320 324 322 321 327 329 324 325 333 326 307 296 294 297 299 302 302 294 289 291 300 305 301 299 299 299
149 72 87 125 192 225 212 221 254 269 252 244 241 237 254 303 310 296 279 263 266 306 323 326 330 326 313 298 268 276 292 355 293 277 274 106 18 324 5 9 289 238 181 218 245 250 266 280 285 287 290 300 309 304 286 284 297 307 308 310 316 321 324 325 327 328 327 328 335 333 312 296 294 302 303 293 292 297 296 296 308 331 334 324 315 309 303
106 86 116 157 197 224 221 222 351 326 289 282 306 327 346 346 312 291 288 298 314 312 302 276 192 249 280 291 4 325 277 250 211 273 345 55 110 240 188 4 318 309 282 247 247 256 264 271 284 295 301 305 310 302 280 275 286 294 300 307 311 316 324 329 327 324 329 337 335 320 307 303 307 311 303 290 292 301 302 302 338 16 12 3 345 327 316
74 66 158 181 214 252 248 151 34 299 298 325 355 335 325 321 297 287 304 332 331 323 323 319 203 234 278 334 24 348 274 243 174 107 336 245 223 211 178 163 235 266 276 277 277 281 286 291 303 307 305 305 311 311 298 284 282 286 294 304 311 320 332 333 326 325 334 336 324 314 312 316 317 312 303 295 298 302 302 313 357 14 12 8 4 351 335
339 265 225 214 217 229 233 182 200 246 280 306 294 265 271 281 263 269 329 359 350 338 326 291 261 42 30 14 355 282 264 248 176 191 234 228 202 181 190 217 227 241 273 290 292 290 291 295 298 299 300 304 308 308 306 305 297 288 292 305 316 324 333 335 331 328 328 326 323 324 326 323 319 318 314 305 304 308 317 345 1 6 7 10 14 7 351
196 222 259 261 242 219 219 226 228 237 253 266 257 230 200 215 237 261 329 355 338 289 263 238 156 80 53 231 216 216 329 315 290 259 251 245 223 195 201 223 251 266 274 283 292 299 303 303 299 293 292 295 297 299 309 317 308 294 295 306 315 322 331 334 331 327 327 329 332 332 328 323 323 326 328 331 343 349 346 346 352 357 5 17 22 17 4